Back to catalog

STARLINK-36147

AliveCommunicationsVLEO
NORAD 66987·PAYLOAD·🇺🇸 United States

Launched Dec 8, 2025 from Cape Canaveral Space Force Station

Loading…

Next Passes (next 24 hours)

TLE

FreshSource: CelesTrak SupGP

Epoch: Sep 15, 2026, 03:16 UTC

1 66987C 25288AE  26258.13659722 -.00011635  00000+0 -42141-3 0  2589
2 66987  43.0034  33.4910 0001498 265.3350  18.6707 15.27585879    15

Track STARLINK-36147 in real time with AllMySat

Download on the App Store